Time,TemperatureF,DewpointF,PressureIn,WindDirection,WindDirectionDegrees,WindSpeedMPH,WindSpeedGustMPH,Humidity,HourlyPrecipIn,Conditions,Clouds,dailyrainin,SoftwareType,DateUTC
2013-01-18 00:00:00,17.4,15.2,28.92,ESE,105,2.0,7.0,91,0.00,,,0.00,Wunderground v.1.15,2013-01-18 05:00:00,
2013-01-18 00:05:00,17.2,15.0,28.92,ESE,103,3.0,7.0,91,0.00,,,0.00,Wunderground v.1.15,2013-01-18 05:05:00,
2013-01-18 00:15:00,17.2,15.0,28.92,ESE,117,2.0,7.0,91,0.00,,,0.00,Wunderground v.1.15,2013-01-18 05:15:00,
2013-01-18 00:20:00,17.2,15.0,28.92,ESE,122,2.0,2.0,91,0.00,,,0.00,Wunderground v.1.15,2013-01-18 05:20:00,
2013-01-18 00:25:00,17.3,15.1,28.92,SE,124,1.0,7.0,91,0.00,,,0.00,Wunderground v.1.15,2013-01-18 05:25:00,
2013-01-18 00:30:00,17.4,15.2,28.92,SE,125,1.0,1.0,91,0.00,,,0.00,Wunderground v.1.15,2013-01-18 05:30:00,
2013-01-18 00:35:00,17.5,15.3,28.92,East,101,1.0,3.0,91,0.00,,,0.00,Wunderground v.1.15,2013-01-18 05:35:00,
2013-01-18 00:45:00,17.5,15.3,28.92,East,101,2.0,7.0,91,0.00,,,0.00,Wunderground v.1.15,2013-01-18 05:45:00,
2013-01-18 00:50:00,17.2,15.0,28.92,ESE,121,3.0,7.0,91,0.00,,,0.00,Wunderground v.1.15,2013-01-18 05:50:00,
2013-01-18 00:55:00,16.7,14.5,28.92,ESE,109,4.0,7.0,91,0.00,,,0.00,Wunderground v.1.15,2013-01-18 05:55:00,
2013-01-18 01:00:00,16.3,14.1,28.92,ESE,120,3.0,11.0,91,0.00,,,0.00,Wunderground v.1.15,2013-01-18 06:00:00,
2013-01-18 01:10:00,16.0,13.8,28.92,SE,132,3.0,11.0,91,0.00,,,0.00,Wunderground v.1.15,2013-01-18 06:10:00,
2013-01-18 01:20:00,16.0,13.8,28.92,SE,126,3.0,11.0,91,0.00,,,0.00,Wunderground v.1.15,2013-01-18 06:20:00,
2013-01-18 01:25:00,15.8,13.6,28.92,SE,139,3.0,11.0,91,0.00,,,0.00,Wunderground v.1.15,2013-01-18 06:25:00,
2013-01-18 01:30:00,15.7,13.3,28.92,ESE,109,4.0,4.0,90,0.00,,,0.00,Wunderground v.1.15,2013-01-18 06:30:00,
2013-01-18 01:35:00,15.5,13.1,28.92,SE,130,3.0,11.0,90,0.00,,,0.00,Wunderground v.1.15,2013-01-18 06:35:00,
2013-01-18 01:40:00,15.4,12.7,28.92,ESE,121,4.0,11.0,89,0.00,,,0.00,Wunderground v.1.15,2013-01-18 06:40:00,
2013-01-18 01:45:00,15.2,12.5,28.92,East,98,5.0,11.0,89,0.00,,,0.00,Wunderground v.1.15,2013-01-18 06:45:00,
2013-01-18 01:55:00,15.1,12.4,28.92,SE,144,4.0,11.0,89,0.00,,,0.00,Wunderground v.1.15,2013-01-18 06:55:00,
2013-01-18 02:00:00,15.0,12.6,28.92,East,98,3.0,10.0,90,0.00,,,0.00,Wunderground v.1.15,2013-01-18 07:00:00,
2013-01-18 02:10:00,15.1,12.7,28.92,ESE,105,2.0,10.0,90,0.00,,,0.00,Wunderground v.1.15,2013-01-18 07:10:00,
2013-01-18 02:15:00,15.1,12.7,28.92,East,97,2.0,10.0,90,0.00,,,0.00,Wunderground v.1.15,2013-01-18 07:15:00,
2013-01-18 02:20:00,15.0,12.6,28.92,ESE,102,3.0,10.0,90,0.00,,,0.00,Wunderground v.1.15,2013-01-18 07:20:00,
2013-01-18 02:30:00,14.9,12.5,28.92,East,93,2.0,10.0,90,0.00,,,0.00,Wunderground v.1.15,2013-01-18 07:30:00,
2013-01-18 02:35:00,14.9,12.5,28.92,ESE,102,1.0,10.0,90,0.00,,,0.00,Wunderground v.1.15,2013-01-18 07:35:00,
2013-01-18 02:40:00,14.9,12.7,28.92,ESE,105,2.0,10.0,91,0.00,,,0.00,Wunderground v.1.15,2013-01-18 07:40:00,
2013-01-18 02:45:00,15.1,12.9,28.92,ESE,105,2.0,10.0,91,0.00,,,0.00,Wunderground v.1.15,2013-01-18 07:45:00,
2013-01-18 02:50:00,15.1,12.9,28.92,ESE,110,2.0,10.0,91,0.00,,,0.00,Wunderground v.1.15,2013-01-18 07:50:00,
2013-01-18 02:55:00,15.2,13.0,28.92,SE,128,1.0,10.0,91,0.00,,,0.00,Wunderground v.1.15,2013-01-18 07:55:00,
2013-01-18 03:00:00,15.2,13.0,28.92,SSE,161,2.0,5.0,91,0.00,,,0.00,Wunderground v.1.15,2013-01-18 08:00:00,
2013-01-18 03:10:00,14.8,12.6,28.92,SSE,149,3.0,5.0,91,0.00,,,0.00,Wunderground v.1.15,2013-01-18 08:10:00,
2013-01-18 03:15:00,14.9,12.7,28.92,SE,133,3.0,5.0,91,0.00,,,0.00,Wunderground v.1.15,2013-01-18 08:15:00,
2013-01-18 03:20:00,15.0,12.8,28.92,SSE,153,2.0,2.0,91,0.00,,,0.00,Wunderground v.1.15,2013-01-18 08:20:00,
2013-01-18 03:25:00,15.0,12.8,28.92,SSE,153,2.0,5.0,91,0.00,,,0.00,Wunderground v.1.15,2013-01-18 08:25:00,
2013-01-18 03:30:00,14.9,12.7,28.92,South,173,1.0,5.0,91,0.00,,,0.00,Wunderground v.1.15,2013-01-18 08:30:00,
2013-01-18 03:35:00,14.9,12.7,28.92,SSE,149,2.0,5.0,91,0.00,,,0.00,Wunderground v.1.15,2013-01-18 08:35:00,
2013-01-18 03:40:00,14.8,12.6,28.92,SE,144,2.0,2.0,91,0.00,,,0.00,Wunderground v.1.15,2013-01-18 08:40:00,
2013-01-18 03:45:00,14.6,12.5,28.92,South,170,3.0,3.0,91,0.00,,,0.00,Wunderground v.1.15,2013-01-18 08:45:00,
2013-01-18 03:50:00,14.2,12.1,28.92,SSE,162,4.0,7.0,91,0.00,,,0.00,Wunderground v.1.15,2013-01-18 08:50:00,
2013-01-18 03:55:00,14.0,11.9,28.92,South,175,5.0,9.0,91,0.00,,,0.00,Wunderground v.1.15,2013-01-18 08:55:00,
2013-01-18 04:00:00,13.7,11.6,28.92,South,184,5.0,11.0,91,0.00,,,0.00,Wunderground v.1.15,2013-01-18 09:00:00,
2013-01-18 04:10:00,13.4,11.3,28.92,South,176,5.0,5.0,91,0.00,,,0.00,Wunderground v.1.15,2013-01-18 09:10:00,
2013-01-18 04:15:00,13.3,11.2,28.92,South,182,5.0,11.0,91,0.00,,,0.00,Wunderground v.1.15,2013-01-18 09:15:00,
2013-01-18 04:20:00,13.2,11.1,28.92,South,186,4.0,4.0,91,0.00,,,0.00,Wunderground v.1.15,2013-01-18 09:20:00,
2013-01-18 04:25:00,13.0,10.9,28.92,SSW,198,4.0,11.0,91,0.00,,,0.00,Wunderground v.1.15,2013-01-18 09:25:00,
2013-01-18 04:30:00,12.7,10.6,28.92,South,180,4.0,4.0,91,0.00,,,0.00,Wunderground v.1.15,2013-01-18 09:30:00,
2013-01-18 04:40:00,12.2,10.1,28.92,South,180,4.0,4.0,91,0.00,,,0.00,Wunderground v.1.15,2013-01-18 09:40:00,
2013-01-18 04:45:00,12.0,9.9,28.92,South,180,3.0,11.0,91,0.00,,,0.00,Wunderground v.1.15,2013-01-18 09:45:00,
2013-01-18 04:50:00,12.1,10.0,28.92,South,180,3.0,3.0,91,0.00,,,0.00,Wunderground v.1.15,2013-01-18 09:50:00,
2013-01-18 04:55:00,12.1,10.0,28.92,South,180,3.0,11.0,91,0.00,,,0.00,Wunderground v.1.15,2013-01-18 09:55:00,
2013-01-18 05:00:00,11.9,9.8,28.92,South,180,2.0,8.0,91,0.00,,,0.00,Wunderground v.1.15,2013-01-18 10:00:00,
2013-01-18 05:10:00,11.4,9.3,28.92,South,180,1.0,1.0,91,0.00,,,0.00,Wunderground v.1.15,2013-01-18 10:10:00,
2013-01-18 05:15:00,11.2,8.8,28.92,South,180,1.0,8.0,90,0.00,,,0.00,Wunderground v.1.15,2013-01-18 10:15:00,
2013-01-18 05:20:00,11.2,9.1,28.92,South,180,1.0,8.0,91,0.00,,,0.00,Wunderground v.1.15,2013-01-18 10:20:00,
2013-01-18 05:25:00,11.1,9.0,28.92,South,180,0.0,8.0,91,0.00,,,0.00,Wunderground v.1.15,2013-01-18 10:25:00,
2013-01-18 05:30:00,10.6,8.2,28.92,South,180,0.0,8.0,90,0.00,,,0.00,Wunderground v.1.15,2013-01-18 10:30:00,
2013-01-18 05:35:00,9.4,7.1,28.92,South,180,0.0,8.0,90,0.00,,,0.00,Wunderground v.1.15,2013-01-18 10:35:00,
2013-01-18 05:45:00,7.5,4.9,28.92,South,180,1.0,8.0,89,0.00,,,0.00,Wunderground v.1.15,2013-01-18 10:45:00,
2013-01-18 05:50:00,6.9,4.6,28.92,South,180,1.0,1.0,90,0.00,,,0.00,Wunderground v.1.15,2013-01-18 10:50:00,
2013-01-18 05:55:00,8.0,5.7,28.92,South,180,1.0,8.0,90,0.00,,,0.00,Wunderground v.1.15,2013-01-18 10:55:00,
2013-01-18 06:00:00,9.4,7.3,28.92,South,180,0.0,3.0,91,0.00,,,0.00,Wunderground v.1.15,2013-01-18 11:00:00,
2013-01-18 06:10:00,9.5,7.4,28.92,South,180,0.0,3.0,91,0.00,,,0.00,Wunderground v.1.15,2013-01-18 11:10:00,
2013-01-18 06:20:00,8.5,6.2,28.92,South,180,0.0,3.0,90,0.00,,,0.00,Wunderground v.1.15,2013-01-18 11:20:00,
2013-01-18 06:25:00,9.0,6.9,28.92,South,180,0.0,3.0,91,0.00,,,0.00,Wunderground v.1.15,2013-01-18 11:25:00,
2013-01-18 06:30:00,9.3,7.2,28.92,South,180,0.0,3.0,91,0.00,,,0.00,Wunderground v.1.15,2013-01-18 11:30:00,
2013-01-18 06:35:00,9.4,7.3,28.92,South,180,0.0,3.0,91,0.00,,,0.00,Wunderground v.1.15,2013-01-18 11:35:00,
2013-01-18 06:40:00,8.9,6.8,28.92,South,180,0.0,3.0,91,0.00,,,0.00,Wunderground v.1.15,2013-01-18 11:40:00,
2013-01-18 06:50:00,6.9,4.6,28.92,South,180,0.0,3.0,90,0.00,,,0.00,Wunderground v.1.15,2013-01-18 11:50:00,
2013-01-18 06:55:00,6.4,4.1,28.92,South,180,0.0,3.0,90,0.00,,,0.00,Wunderground v.1.15,2013-01-18 11:55:00,
2013-01-18 07:00:00,5.5,3.2,28.92,South,180,0.0,1.0,90,0.00,,,0.00,Wunderground v.1.15,2013-01-18 12:00:00,
2013-01-18 07:10:00,3.8,1.3,28.92,South,180,0.0,1.0,89,0.00,,,0.00,Wunderground v.1.15,2013-01-18 12:10:00,
2013-01-18 07:15:00,3.5,1.0,28.92,South,180,0.0,1.0,89,0.00,,,0.00,Wunderground v.1.15,2013-01-18 12:15:00,
2013-01-18 07:25:00,4.6,2.3,28.92,South,180,0.0,1.0,90,0.00,,,0.00,Wunderground v.1.15,2013-01-18 12:25:00,
2013-01-18 07:30:00,5.4,3.3,28.92,South,180,0.0,1.0,91,0.00,,,0.00,Wunderground v.1.15,2013-01-18 12:30:00,
2013-01-18 07:35:00,6.0,3.9,28.92,South,180,0.0,1.0,91,0.00,,,0.00,Wunderground v.1.15,2013-01-18 12:35:00,
2013-01-18 07:40:00,6.3,4.2,28.92,South,180,0.0,1.0,91,0.00,,,0.00,Wunderground v.1.15,2013-01-18 12:40:00,
2013-01-18 07:45:00,6.8,4.7,28.92,South,180,0.0,1.0,91,0.00,,,0.00,Wunderground v.1.15,2013-01-18 12:45:00,
2013-01-18 07:55:00,7.4,5.3,28.92,South,180,0.0,1.0,91,0.00,,,0.00,Wunderground v.1.15,2013-01-18 12:55:00,
2013-01-18 08:00:00,7.1,5.0,28.92,South,180,0.0,1.0,91,0.00,,,0.00,Wunderground v.1.15,2013-01-18 13:00:00,
2013-01-18 08:10:00,8.2,6.4,28.92,South,180,0.0,1.0,92,0.00,,,0.00,Wunderground v.1.15,2013-01-18 13:10:00,
2013-01-18 08:15:00,9.4,7.5,28.92,South,180,0.0,1.0,92,0.00,,,0.00,Wunderground v.1.15,2013-01-18 13:15:00,
2013-01-18 08:25:00,11.2,9.3,28.92,South,180,0.0,1.0,92,0.00,,,0.00,Wunderground v.1.15,2013-01-18 13:25:00,
2013-01-18 08:30:00,11.5,9.6,28.92,South,180,0.0,1.0,92,0.00,,,0.00,Wunderground v.1.15,2013-01-18 13:30:00,
2013-01-18 08:40:00,11.9,10.0,28.92,South,180,0.0,1.0,92,0.00,,,0.00,Wunderground v.1.15,2013-01-18 13:40:00,
2013-01-18 08:45:00,12.2,10.3,28.92,South,180,0.0,1.0,92,0.00,,,0.00,Wunderground v.1.15,2013-01-18 13:45:00,
2013-01-18 08:50:00,12.5,10.6,28.92,South,180,0.0,1.0,92,0.00,,,0.00,Wunderground v.1.15,2013-01-18 13:50:00,
2013-01-18 08:55:00,12.5,10.6,28.92,South,180,0.0,2.0,92,0.00,,,0.00,Wunderground v.1.15,2013-01-18 13:55:00,
2013-01-18 09:00:00,12.5,10.6,28.92,South,180,1.0,2.0,92,0.00,,,0.00,Wunderground v.1.15,2013-01-18 14:00:00,
2013-01-18 09:10:00,12.6,10.7,28.92,South,180,2.0,2.0,92,0.00,,,0.00,Wunderground v.1.15,2013-01-18 14:10:00,
2013-01-18 09:15:00,13.0,11.1,28.92,South,182,1.0,2.0,92,0.00,,,0.00,Wunderground v.1.15,2013-01-18 14:15:00,
2013-01-18 09:20:00,13.4,11.5,28.92,NNW,342,1.0,2.0,92,0.00,,,0.00,Wunderground v.1.15,2013-01-18 14:20:00,
2013-01-18 09:25:00,13.8,11.9,28.92,NNW,346,1.0,3.0,92,0.00,,,0.00,Wunderground v.1.15,2013-01-18 14:25:00,
2013-01-18 09:30:00,14.4,12.7,28.92,North,350,2.0,3.0,93,0.00,,,0.00,Wunderground v.1.15,2013-01-18 14:30:00,
2013-01-18 09:35:00,14.8,13.1,28.92,North,351,3.0,3.0,93,0.00,,,0.00,Wunderground v.1.15,2013-01-18 14:35:00,
2013-01-18 09:40:00,15.3,13.6,28.92,NNW,344,2.0,2.0,93,0.00,,,0.00,Wunderground v.1.15,2013-01-18 14:40:00,
2013-01-18 09:45:00,15.9,14.2,28.92,WNW,290,2.0,4.0,93,0.00,,,0.00,Wunderground v.1.15,2013-01-18 14:45:00,
2013-01-18 09:50:00,16.0,14.1,28.92,WNW,293,3.0,3.0,92,0.00,,,0.00,Wunderground v.1.15,2013-01-18 14:50:00,
2013-01-18 09:55:00,16.3,14.4,28.92,NNW,344,3.0,3.0,92,0.00,,,0.00,Wunderground v.1.15,2013-01-18 14:55:00,
2013-01-18 10:00:00,16.8,14.9,28.92,NNW,336,1.0,1.0,92,0.00,,,0.00,Wunderground v.1.15,2013-01-18 15:00:00,
2013-01-18 10:10:00,17.4,15.5,28.92,North,353,2.0,9.0,92,0.00,,,0.00,Wunderground v.1.15,2013-01-18 15:10:00,
2013-01-18 10:15:00,17.5,15.3,28.92,ENE,62,3.0,9.0,91,0.00,,,0.00,Wunderground v.1.15,2013-01-18 15:15:00,
2013-01-18 10:20:00,17.7,15.5,28.92,WSW,244,2.0,9.0,91,0.00,,,0.00,Wunderground v.1.15,2013-01-18 15:20:00,
2013-01-18 10:25:00,17.7,15.3,28.92,WNW,303,3.0,9.0,90,0.00,,,0.00,Wunderground v.1.15,2013-01-18 15:25:00,
2013-01-18 10:30:00,17.7,15.0,28.92,ESE,113,3.0,9.0,89,0.00,,,0.00,Wunderground v.1.15,2013-01-18 15:30:00,
2013-01-18 10:35:00,17.7,15.0,28.92,East,95,4.0,9.0,89,0.00,,,0.00,Wunderground v.1.15,2013-01-18 15:35:00,
2013-01-18 10:45:00,18.2,15.2,28.92,ESE,103,4.0,9.0,88,0.00,,,0.00,Wunderground v.1.15,2013-01-18 15:45:00,
2013-01-18 10:50:00,18.8,15.8,28.92,East,99,4.0,9.0,88,0.00,,,0.00,Wunderground v.1.15,2013-01-18 15:50:00,
2013-01-18 10:55:00,18.9,15.7,28.92,SE,124,4.0,9.0,87,0.00,,,0.00,Wunderground v.1.15,2013-01-18 15:55:00,
2013-01-18 11:00:00,18.8,15.3,28.92,North,4,4.0,4.0,86,0.00,,,0.00,Wunderground v.1.15,2013-01-18 16:00:00,
2013-01-18 11:10:00,19.2,15.2,28.92,ESE,115,4.0,12.0,84,0.00,,,0.00,Wunderground v.1.15,2013-01-18 16:10:00,
2013-01-18 11:20:00,19.3,14.7,28.92,East,88,6.0,12.0,82,0.00,,,0.00,Wunderground v.1.15,2013-01-18 16:20:00,
2013-01-18 11:25:00,19.0,13.8,28.92,ESE,103,6.0,12.0,80,0.00,,,0.00,Wunderground v.1.15,2013-01-18 16:25:00,
2013-01-18 11:30:00,19.1,13.9,28.92,East,79,6.0,12.0,80,0.00,,,0.00,Wunderground v.1.15,2013-01-18 16:30:00,
2013-01-18 11:35:00,19.3,13.9,28.92,ESE,113,7.0,12.0,79,0.00,,,0.00,Wunderground v.1.15,2013-01-18 16:35:00,
2013-01-18 11:40:00,19.4,13.4,28.92,ESE,112,8.0,8.0,77,0.00,,,0.00,Wunderground v.1.15,2013-01-18 16:40:00,
2013-01-18 11:50:00,19.7,12.8,28.92,ENE,76,6.0,6.0,74,0.00,,,0.00,Wunderground v.1.15,2013-01-18 16:50:00,
2013-01-18 11:55:00,19.7,12.4,28.92,East,83,6.0,12.0,73,0.00,,,0.00,Wunderground v.1.15,2013-01-18 16:55:00,
2013-01-18 12:00:00,20.1,13.1,28.92,WSW,251,5.0,5.0,74,0.00,,,0.00,Wunderground v.1.15,2013-01-18 17:00:00,
2013-01-18 12:10:00,20.0,12.4,28.92,East,91,5.0,5.0,72,0.00,,,0.00,Wunderground v.1.15,2013-01-18 17:10:00,
2013-01-18 12:15:00,20.1,12.2,28.92,West,274,5.0,18.0,71,0.00,,,0.00,Wunderground v.1.15,2013-01-18 17:15:00,
2013-01-18 12:25:00,20.5,11.9,28.92,SSW,193,3.0,18.0,69,0.00,,,0.00,Wunderground v.1.15,2013-01-18 17:25:00,
2013-01-18 12:30:00,20.4,11.5,28.92,WNW,287,3.0,18.0,68,0.00,,,0.00,Wunderground v.1.15,2013-01-18 17:30:00,
2013-01-18 12:35:00,20.6,11.7,28.92,ESE,116,4.0,18.0,68,0.00,,,0.00,Wunderground v.1.15,2013-01-18 17:35:00,
2013-01-18 12:40:00,20.8,11.6,28.92,ESE,109,3.0,18.0,67,0.00,,,0.00,Wunderground v.1.15,2013-01-18 17:40:00,
2013-01-18 12:45:00,20.9,11.3,28.92,WSW,238,3.0,18.0,66,0.00,,,0.00,Wunderground v.1.15,2013-01-18 17:45:00,
2013-01-18 12:50:00,21.1,11.2,28.92,SSW,197,3.0,18.0,65,0.00,,,0.00,Wunderground v.1.15,2013-01-18 17:50:00,
2013-01-18 13:00:00,21.1,10.1,28.92,ESE,105,4.0,14.0,62,0.00,,,0.00,Wunderground v.1.15,2013-01-18 18:00:00,
2013-01-18 13:10:00,21.1,10.1,28.92,SE,135,4.0,4.0,62,0.00,,,0.00,Wunderground v.1.15,2013-01-18 18:10:00,
2013-01-18 13:15:00,21.0,10.0,28.92,West,259,5.0,5.0,62,0.00,,,0.00,Wunderground v.1.15,2013-01-18 18:15:00,
2013-01-18 13:20:00,20.9,10.3,28.92,West,270,5.0,14.0,63,0.00,,,0.00,Wunderground v.1.15,2013-01-18 18:20:00,
2013-01-18 13:25:00,20.8,10.5,28.92,North,353,4.0,14.0,64,0.00,,,0.00,Wunderground v.1.15,2013-01-18 18:25:00,
2013-01-18 13:35:00,20.8,10.2,28.92,SSE,160,4.0,14.0,63,0.00,,,0.00,Wunderground v.1.15,2013-01-18 18:35:00,
2013-01-18 13:40:00,20.8,10.5,28.92,SSE,168,3.0,3.0,64,0.00,,,0.00,Wunderground v.1.15,2013-01-18 18:40:00,
2013-01-18 13:50:00,21.0,11.1,28.92,WNW,296,3.0,14.0,65,0.00,,,0.00,Wunderground v.1.15,2013-01-18 18:50:00,
2013-01-18 13:55:00,21.1,10.8,28.92,NE,39,3.0,14.0,64,0.00,,,0.00,Wunderground v.1.15,2013-01-18 18:55:00,
2013-01-18 14:00:00,21.1,10.5,28.92,NNW,334,3.0,9.0,63,0.00,,,0.00,Wunderground v.1.15,2013-01-18 19:00:00,
2013-01-18 14:10:00,21.3,11.0,28.92,NNW,334,4.0,4.0,64,0.00,,,0.00,Wunderground v.1.15,2013-01-18 19:10:00,
2013-01-18 14:15:00,21.5,10.8,28.92,NW,314,3.0,9.0,63,0.00,,,0.00,Wunderground v.1.15,2013-01-18 19:15:00,
2013-01-18 14:20:00,21.4,10.4,28.92,North,354,3.0,9.0,62,0.00,,,0.00,Wunderground v.1.15,2013-01-18 19:20:00,
2013-01-18 14:25:00,21.4,10.4,28.92,NNW,348,5.0,9.0,62,0.00,,,0.00,Wunderground v.1.15,2013-01-18 19:25:00,
2013-01-18 14:30:00,21.5,10.8,28.92,WNW,301,3.0,3.0,63,0.00,,,0.00,Wunderground v.1.15,2013-01-18 19:30:00,
2013-01-18 14:35:00,21.4,10.7,28.92,ENE,71,2.0,9.0,63,0.00,,,0.00,Wunderground v.1.15,2013-01-18 19:35:00,
2013-01-18 14:40:00,21.1,10.8,28.92,North,355,3.0,3.0,64,0.00,,,0.00,Wunderground v.1.15,2013-01-18 19:40:00,
2013-01-18 14:50:00,21.0,10.7,28.92,North,353,3.0,9.0,64,0.00,,,0.00,Wunderground v.1.15,2013-01-18 19:50:00,
2013-01-18 14:55:00,20.8,10.2,28.92,North,351,5.0,9.0,63,0.00,,,0.00,Wunderground v.1.15,2013-01-18 19:55:00,
2013-01-18 15:00:00,20.7,9.7,28.92,North,359,6.0,6.0,62,0.00,,,0.00,Wunderground v.1.15,2013-01-18 20:00:00,
2013-01-18 15:10:00,20.8,10.5,28.92,North,349,4.0,4.0,64,0.00,,,0.00,Wunderground v.1.15,2013-01-18 20:10:00,
2013-01-18 15:15:00,20.8,10.5,28.92,NNW,340,5.0,5.0,64,0.00,,,0.00,Wunderground v.1.15,2013-01-18 20:15:00,
2013-01-18 15:20:00,20.9,10.6,28.92,NNW,348,5.0,14.0,64,0.00,,,0.00,Wunderground v.1.15,2013-01-18 20:20:00,
2013-01-18 15:25:00,21.2,11.3,28.92,NNW,345,4.0,14.0,65,0.00,,,0.00,Wunderground v.1.15,2013-01-18 20:25:00,
2013-01-18 15:30:00,21.2,10.9,28.92,NNW,341,4.0,14.0,64,0.00,,,0.00,Wunderground v.1.15,2013-01-18 20:30:00,
2013-01-18 15:35:00,21.3,11.4,28.92,North,359,5.0,14.0,65,0.00,,,0.00,Wunderground v.1.15,2013-01-18 20:35:00,
2013-01-18 15:45:00,21.4,11.8,28.92,North,349,4.0,14.0,66,0.00,,,0.00,Wunderground v.1.15,2013-01-18 20:45:00,
2013-01-18 15:50:00,21.4,11.5,28.92,NNE,26,3.0,14.0,65,0.00,,,0.00,Wunderground v.1.15,2013-01-18 20:50:00,
2013-01-18 15:55:00,21.2,11.3,28.92,North,356,5.0,14.0,65,0.00,,,0.00,Wunderground v.1.15,2013-01-18 20:55:00,
2013-01-18 16:00:00,21.0,11.1,28.92,North,350,6.0,6.0,65,0.00,,,0.00,Wunderground v.1.15,2013-01-18 21:00:00,
2013-01-18 16:10:00,20.4,10.8,28.92,North,1,7.0,7.0,66,0.00,,,0.00,Wunderground v.1.15,2013-01-18 21:10:00,
2013-01-18 16:20:00,20.2,11.0,28.92,North,357,6.0,11.0,67,0.00,,,0.00,Wunderground v.1.15,2013-01-18 21:20:00,
2013-01-18 16:25:00,20.1,11.2,28.92,North,360,6.0,11.0,68,0.00,,,0.00,Wunderground v.1.15,2013-01-18 21:25:00,
2013-01-18 16:30:00,20.1,11.2,28.92,North,353,6.0,6.0,68,0.00,,,0.00,Wunderground v.1.15,2013-01-18 21:30:00,
2013-01-18 16:35:00,20.1,11.2,28.92,North,360,6.0,11.0,68,0.00,,,0.00,Wunderground v.1.15,2013-01-18 21:35:00,
2013-01-18 16:40:00,20.1,11.2,28.92,North,357,6.0,11.0,68,0.00,,,0.00,Wunderground v.1.15,2013-01-18 21:40:00,
2013-01-18 16:45:00,20.0,11.1,28.92,North,5,5.0,11.0,68,0.00,,,0.00,Wunderground v.1.15,2013-01-18 21:45:00,
2013-01-18 16:55:00,19.8,11.3,28.92,North,350,4.0,11.0,69,0.00,,,0.00,Wunderground v.1.15,2013-01-18 21:55:00,
2013-01-18 17:00:00,19.7,11.5,28.92,North,351,5.0,9.0,70,0.00,,,0.00,Wunderground v.1.15,2013-01-18 22:00:00,
2013-01-18 17:10:00,20.0,11.8,28.92,North,6,6.0,6.0,70,0.00,,,0.00,Wunderground v.1.15,2013-01-18 22:10:00,
2013-01-18 17:15:00,20.2,12.0,28.92,North,351,6.0,9.0,70,0.00,,,0.00,Wunderground v.1.15,2013-01-18 22:15:00,
2013-01-18 17:25:00,20.2,12.3,28.92,NNW,341,7.0,9.0,71,0.00,,,0.00,Wunderground v.1.15,2013-01-18 22:25:00,
2013-01-18 17:30:00,20.5,12.6,28.92,NNW,342,7.0,9.0,71,0.00,,,0.00,Wunderground v.1.15,2013-01-18 22:30:00,
2013-01-18 17:35:00,20.6,13.0,28.92,North,353,6.0,9.0,72,0.00,,,0.00,Wunderground v.1.15,2013-01-18 22:35:00,
2013-01-18 17:40:00,20.8,12.9,28.92,NNW,332,7.0,9.0,71,0.00,,,0.00,Wunderground v.1.15,2013-01-18 22:40:00,
2013-01-18 17:45:00,20.9,13.0,28.92,North,7,7.0,9.0,71,0.00,,,0.00,Wunderground v.1.15,2013-01-18 22:45:00,
2013-01-18 17:50:00,21.1,13.2,28.92,North,350,7.0,7.0,71,0.00,,,0.00,Wunderground v.1.15,2013-01-18 22:50:00,
2013-01-18 17:55:00,21.3,13.0,28.92,North,8,7.0,9.0,70,0.00,,,0.00,Wunderground v.1.15,2013-01-18 22:55:00,
2013-01-18 18:00:00,21.5,13.2,28.92,North,351,8.0,11.0,70,0.00,,,0.00,Wunderground v.1.15,2013-01-18 23:00:00,
2013-01-18 18:10:00,21.8,13.2,28.92,North,352,8.0,11.0,69,0.00,,,0.00,Wunderground v.1.15,2013-01-18 23:10:00,
2013-01-18 18:15:00,21.9,12.6,28.92,North,359,10.0,11.0,67,0.00,,,0.00,Wunderground v.1.15,2013-01-18 23:15:00,
2013-01-18 18:20:00,22.0,12.7,28.92,North,350,10.0,10.0,67,0.00,,,0.00,Wunderground v.1.15,2013-01-18 23:20:00,
2013-01-18 18:25:00,22.0,12.7,28.92,North,356,9.0,11.0,67,0.00,,,0.00,Wunderground v.1.15,2013-01-18 23:25:00,
2013-01-18 18:35:00,21.5,12.6,28.92,NNW,328,8.0,11.0,68,0.00,,,0.00,Wunderground v.1.15,2013-01-18 23:35:00,
2013-01-18 18:40:00,21.0,12.7,28.92,NW,326,7.0,11.0,70,0.00,,,0.00,Wunderground v.1.15,2013-01-18 23:40:00,
2013-01-18 18:45:00,20.8,12.9,28.92,NNW,332,7.0,11.0,71,0.00,,,0.00,Wunderground v.1.15,2013-01-18 23:45:00,
2013-01-18 18:50:00,20.7,12.8,28.92,NNW,331,7.0,11.0,71,0.00,,,0.00,Wunderground v.1.15,2013-01-18 23:50:00,
2013-01-18 19:00:00,20.8,12.9,28.92,NNW,327,8.0,12.0,71,0.00,,,0.00,Wunderground v.1.15,2013-01-19 00:00:00,
2013-01-18 19:10:00,21.0,13.4,28.92,NW,326,10.0,13.0,72,0.00,,,0.00,Wunderground v.1.15,2013-01-19 00:10:00,
2013-01-18 19:15:00,21.2,13.3,28.92,NW,319,11.0,13.0,71,0.00,,,0.00,Wunderground v.1.15,2013-01-19 00:15:00,
2013-01-18 19:20:00,21.4,13.8,28.92,NNW,340,11.0,12.0,72,0.00,,,0.00,Wunderground v.1.15,2013-01-19 00:20:00,
2013-01-18 19:25:00,21.5,13.5,28.92,NNW,330,11.0,12.0,71,0.00,,,0.00,Wunderground v.1.15,2013-01-19 00:25:00,
2013-01-18 19:35:00,21.6,13.6,28.92,NW,313,10.0,12.0,71,0.00,,,0.00,Wunderground v.1.15,2013-01-19 00:35:00,
2013-01-18 19:40:00,21.8,13.8,28.92,NNW,332,11.0,11.0,71,0.00,,,0.00,Wunderground v.1.15,2013-01-19 00:40:00,
2013-01-18 19:45:00,22.0,14.0,28.92,NNW,332,11.0,12.0,71,0.00,,,0.00,Wunderground v.1.15,2013-01-19 00:45:00,
2013-01-18 19:50:00,22.3,14.0,28.92,North,356,10.0,10.0,70,0.00,,,0.00,Wunderground v.1.15,2013-01-19 00:50:00,
2013-01-18 19:55:00,22.4,14.1,28.92,North,350,10.0,12.0,70,0.00,,,0.00,Wunderground v.1.15,2013-01-19 00:55:00,
2013-01-18 20:00:00,22.6,14.3,28.92,NNW,329,10.0,16.0,70,0.00,,,0.00,Wunderground v.1.15,2013-01-19 01:00:00,
2013-01-18 20:10:00,22.7,14.4,28.92,NW,323,11.0,17.0,70,0.00,,,0.00,Wunderground v.1.15,2013-01-19 01:10:00,
2013-01-18 20:15:00,22.7,14.1,28.92,NNW,334,12.0,17.0,69,0.00,,,0.00,Wunderground v.1.15,2013-01-19 01:15:00,
2013-01-18 20:20:00,22.8,14.1,28.92,NNW,336,13.0,13.0,69,0.00,,,0.00,Wunderground v.1.15,2013-01-19 01:20:00,
2013-01-18 20:25:00,23.0,14.3,28.92,NNW,346,13.0,16.0,69,0.00,,,0.00,Wunderground v.1.15,2013-01-19 01:25:00,
2013-01-18 20:30:00,23.1,14.1,28.92,NNW,331,14.0,14.0,68,0.00,,,0.00,Wunderground v.1.15,2013-01-19 01:30:00,
2013-01-18 20:40:00,23.1,14.4,28.92,North,353,14.0,14.0,69,0.00,,,0.00,Wunderground v.1.15,2013-01-19 01:40:00,
2013-01-18 20:45:00,23.2,14.5,28.92,NW,313,14.0,16.0,69,0.00,,,0.00,Wunderground v.1.15,2013-01-19 01:45:00,
2013-01-18 20:50:00,23.2,14.5,28.92,NW,321,15.0,15.0,69,0.00,,,0.00,Wunderground v.1.15,2013-01-19 01:50:00,
2013-01-18 21:00:00,23.2,14.5,28.92,NNW,338,14.0,14.0,69,0.00,,,0.00,Wunderground v.1.15,2013-01-19 02:00:00,
2013-01-18 21:10:00,23.2,14.5,28.92,NNW,328,14.0,23.0,69,0.00,,,0.00,Wunderground v.1.15,2013-01-19 02:10:00,
2013-01-18 21:15:00,23.3,14.6,28.92,NNW,332,15.0,23.0,69,0.00,,,0.00,Wunderground v.1.15,2013-01-19 02:15:00,
2013-01-18 21:20:00,23.4,14.7,28.92,NW,325,16.0,16.0,69,0.00,,,0.00,Wunderground v.1.15,2013-01-19 02:20:00,
2013-01-18 21:25:00,23.4,14.7,28.92,NNW,330,15.0,17.0,69,0.00,,,0.00,Wunderground v.1.15,2013-01-19 02:25:00,
2013-01-18 21:30:00,23.4,14.4,28.92,NNW,338,16.0,16.0,68,0.00,,,0.00,Wunderground v.1.15,2013-01-19 02:30:00,
2013-01-18 21:35:00,23.4,14.7,28.92,NNW,329,17.0,17.0,69,0.00,,,0.00,Wunderground v.1.15,2013-01-19 02:35:00,
2013-01-18 21:40:00,23.4,14.7,28.92,NNW,335,17.0,17.0,69,0.00,,,0.00,Wunderground v.1.15,2013-01-19 02:40:00,
2013-01-18 21:45:00,23.4,14.7,28.92,NNW,332,16.0,18.0,69,0.00,,,0.00,Wunderground v.1.15,2013-01-19 02:45:00,
2013-01-18 21:50:00,23.4,14.7,28.92,North,351,16.0,16.0,69,0.00,,,0.00,Wunderground v.1.15,2013-01-19 02:50:00,
2013-01-18 21:55:00,23.4,14.7,28.92,NNW,344,16.0,23.0,69,0.00,,,0.00,Wunderground v.1.15,2013-01-19 02:55:00,
2013-01-18 22:00:00,23.4,15.1,28.92,NW,326,16.0,25.0,70,0.00,,,0.00,Wunderground v.1.15,2013-01-19 03:00:00,
2013-01-18 22:10:00,23.4,15.1,28.92,NW,326,17.0,17.0,70,0.00,,,0.00,Wunderground v.1.15,2013-01-19 03:10:00,
2013-01-18 22:15:00,23.4,15.1,28.92,NNW,340,16.0,18.0,70,0.00,,,0.00,Wunderground v.1.15,2013-01-19 03:15:00,
2013-01-18 22:20:00,23.5,15.1,28.92,NW,318,17.0,17.0,70,0.00,,,0.00,Wunderground v.1.15,2013-01-19 03:20:00,
2013-01-18 22:25:00,23.7,15.0,28.92,NW,325,17.0,18.0,69,0.00,,,0.00,Wunderground v.1.15,2013-01-19 03:25:00,
2013-01-18 22:30:00,23.8,15.1,28.92,NNW,340,16.0,25.0,69,0.00,,,0.00,Wunderground v.1.15,2013-01-19 03:30:00,
2013-01-18 22:35:00,23.9,15.2,28.92,NNW,328,16.0,25.0,69,0.00,,,0.00,Wunderground v.1.15,2013-01-19 03:35:00,
2013-01-18 22:40:00,23.9,15.5,28.92,NNW,329,16.0,16.0,70,0.00,,,0.00,Wunderground v.1.15,2013-01-19 03:40:00,
2013-01-18 22:45:00,24.0,15.6,28.92,North,352,16.0,19.0,70,0.00,,,0.00,Wunderground v.1.15,2013-01-19 03:45:00,
2013-01-18 22:50:00,24.1,15.4,28.92,NW,319,16.0,25.0,69,0.00,,,0.00,Wunderground v.1.15,2013-01-19 03:50:00,
2013-01-18 22:55:00,24.2,15.8,28.92,NW,317,15.0,25.0,70,0.00,,,0.00,Wunderground v.1.15,2013-01-19 03:55:00,
2013-01-18 23:00:00,24.3,15.6,28.92,NW,326,15.0,15.0,69,0.00,,,0.00,Wunderground v.1.15,2013-01-19 04:00:00,
2013-01-18 23:10:00,24.9,16.2,28.92,NW,324,14.0,26.0,69,0.00,,,0.00,Wunderground v.1.15,2013-01-19 04:10:00,
2013-01-18 23:20:00,25.2,16.1,28.92,NW,320,15.0,15.0,68,0.00,,,0.00,Wunderground v.1.15,2013-01-19 04:20:00,
2013-01-18 23:25:00,25.4,16.6,28.92,North,358,14.0,17.0,69,0.00,,,0.00,Wunderground v.1.15,2013-01-19 04:25:00,
2013-01-18 23:30:00,26.2,16.4,28.92,NNE,16,15.0,15.0,66,0.00,,,0.00,Wunderground v.1.15,2013-01-19 04:30:00,
2013-01-18 23:35:00,26.7,16.5,28.92,North,6,16.0,18.0,65,0.00,,,0.00,Wunderground v.1.15,2013-01-19 04:35:00,
2013-01-18 23:45:00,27.2,16.3,28.92,NW,313,17.0,20.0,63,0.00,,,0.00,Wunderground v.1.15,2013-01-19 04:45:00,
2013-01-18 23:55:00,27.6,15.9,28.92,North,3,15.0,26.0,61,0.00,,,0.00,Wunderground v.1.15,2013-01-19 04:55:00,